Back to catalog

BLOCK DM-SL R/B

AliveHEO
NORAD 27953·ROCKET BODY· XX

Launched Oct 1, 2003 from Sea Launch Platform

Loading…

Next Passes (next 24 hours)

TLE

FreshSource: Space-Track

Epoch: Sep 14, 2026, 08:53 UTC

1 27953U 03044B   26257.37027551 -.00000110  00000-0  00000-0 0  9992
2 27953   0.5616 330.1214 6588403 326.5208  11.8510  2.14422782179746

Track BLOCK DM-SL R/B in real time with AllMySat

Download on the App Store